Regional Weather Roundup
Issued by NWS

Home | Current Version | Previous Version | Text Only | Print | Product List | Glossary Off
Versions: 1 2 3 4 5 6 7 8 9 10 11 12 13 14 15 16 17 18 19 20 21 22 23 24 25 26 27 28 29 30 31 32 33 34 35 36 37 38 39 40 41 42 43 44 45 46 47 48 49 50

000
ASUS43 KMPX 240701
RWRMN
WEATHER ROUNDUP FOR MINNESOTA
NATIONAL WEATHER SERVICE TWIN CITIES/CHANHASSEN MN
200 AM CDT SAT JUN 24 2017


NOTE: "FAIR" INDICATES FEW OR NO CLOUDS BELOW 12,000 FEET WITH NO
SIGNIFICANT WEATHER AND/OR OBSTRUCTIONS TO VISIBILITY. N/A MEANS
CURRENT SKY AND/OR WEATHER CONDITIONS ARE NOT AVAILABLE.

MNZ060>063-068>070-240800-
   Twin Cities Metro

CITY           SKY/WX    TMP DP  RH WIND       PRES   REMARKS
TWIN CITIES    PTCLDY    59  46  62 W8        29.95S
ST PAUL        PTCLDY    59  48  67 NW10      29.95S
CRYSTAL        PTCLDY    57  45  64 W7        29.94S
BLAINE         PTCLDY    57  48  72 W6        29.95S
LAKEVILLE      CLEAR     54  48  82 W6        29.96S
EDEN PRAIRIE   CLOUDY    59  48  67 W5        29.95S
SOUTH ST PAUL  PTCLDY    60  46  57 W6        29.95S
LAKE ELMO      MOCLDY    59  48  67 NW8       29.95S
$$
MNZ001>005-007-008-013>017-022>024-027-028-240800-
   Northwest Minnesota

CITY           SKY/WX    TMP DP  RH WIND       PRES   REMARKS
BEMIDJI        CLEAR     48  40  74 W8        29.93S
HALLOCK        CLOUDY    54  45  71 W7        29.93S
ROSEAU           N/A     52  46  82 W8        29.91S
WARROAD        CLOUDY    52  46  82 W7        29.91S
CROOKSTON      CLOUDY    54  43  66 NW8       29.96F
FOSSTON        CLOUDY    50  41  71 W8        29.96S
DETROIT LAKES  PTCLDY    52  39  62 W8        29.99F
MOORHEAD       CLEAR     46  39  76 W7        30.01S
PARK RAPIDS    PTCLDY    48  38  68 W7        29.95F
MAHNOMEN       CLOUDY    52  41  66 W9        29.97S
$$
MNZ006-009>011-018-025>026-240800-
   North Central Minnesota

CITY           SKY/WX    TMP DP  RH WIND       PRES   REMARKS
BAUDETTE       LGT RAIN  50  50 100 W9        29.89S FOG
FLAG ISLAND    CLOUDY    54  50  87 W10       29.86F
INTL FALLS     CLOUDY    52  50  93 W9        29.86S
BIG FORK       CLOUDY    54  46  76 CALM      29.89S
LONGVILLE      CLOUDY    54  45  71 W7        29.92F
GRAND RAPIDS   MOCLDY    53  46  77 NW10      29.92S
CRANE LAKE     CLOUDY    52  50  93 CALM      29.86S
ORR            CLOUDY    52  46  82 W9        29.84F
COOK           CLOUDY    54  48  82 W8        29.87S
WALKER         FAIR      49  40  71 W8        29.95S
$$
MNZ012-019>021-037-240800-
   Northeast Minnesota

CITY           SKY/WX    TMP DP  RH WIND       PRES   REMARKS
DULUTH         PTCLDY    52  49  89 NW13G22   29.85F
ELY            CLOUDY    52  50  93 W7G16     29.84S
HIBBING        CLOUDY    52  47  83 NW9G20    29.88S
EVELETH        CLOUDY    54  45  72 W9G17     29.88S
DULUTH HARBOR  CLOUDY    57  52  82 W15       29.86F
TWO HARBORS    CLOUDY    57  52  82 NW7       29.82S
SILVER BAY     CLOUDY    55  52  88 NW5       29.80S
GRAND MARAIS     N/A     61  53  75 N13G24    29.74S
G MARAIS ARPRT CLOUDY    54  48  82 W6        29.80S
$$
MNZ029>031-032-039>041-046>048-054>057-064-240800-
   West Central Minnesota

CITY           SKY/WX    TMP DP  RH WIND       PRES   REMARKS
FERGUS FALLS   CLEAR     46  39  76 W8        30.00S
WHEATON        CLEAR     54  39  58 W8        30.05S
MORRIS         CLEAR     52  43  71 W8        30.02S
ALEXANDRIA     CLEAR     53  43  68 NW13      30.01S
ELBOW LAKE     FAIR      49  41  74 NW6       30.02S
WADENA         PTCLDY    50  37  62 NW6       29.97F
GLENWOOD       CLEAR     52  43  71 W10       30.01S
APPLETON       CLEAR     48  43  81 W5        30.03S
BENSON         CLEAR     48  43  81 NW7       30.04S
ORTONVILLE     CLEAR     54  43  66 NW8       30.04S
MADISON        CLEAR     52  45  76 W6        30.05F
WILLMAR        FAIR      54  45  71 NW8       30.03S
$$
MNZ033>034-036-042>043-049>051-058-059-240800-
   Central Minnesota

CITY           SKY/WX    TMP DP  RH WIND       PRES   REMARKS
ST CLOUD       CLOUDY    57  44  62 NW9       29.96S
SAUK CENTRE    FAIR      50  44  77 W5        29.99S
PAYNESVILLE    CLEAR     50  43  77 W5        30.00S
AITKIN         PTCLDY    48  46  93 CALM      29.92S
PINE RIVER     CLEAR     52  43  71 W5        29.98S
BRAINERD       PTCLDY    54  42  64 NW10      29.95F
STAPLES        CLEAR     50  39  66 W7        29.97S
LONG PRAIRIE   MOCLDY    52  41  66 W5        29.98F
LITTLE FALLS   PTCLDY    50  41  71 W5        29.97S
LITCHFIELD     CLEAR     57  46  67 NW9       30.00S
BUFFALO        CLOUDY    58  46  64 W8        29.98S
MAPLE LAKE     MOCLDY    58  48  70 W6        29.98S
HUTCHINSON     CLEAR     56  46  69 W10       30.00S
$$
MNZ037-044-045-052-053-240800-
   East Central Minnesota

CITY           SKY/WX    TMP DP  RH WIND       PRES   REMARKS
PRINCETON      PTCLDY    52  46  82 W3        29.96R
MORA           CLEAR     52  46  82 W6        29.95S
CAMBRIDGE      CLEAR     55  46  71 W5        29.93S
RUSH CITY      MOCLDY    54  48  82 W3        29.94R
MOOSE LAKE     PTCLDY    52  45  76 W6        29.89S
HINCKLEY       FAIR      52  48  87 W5        29.92S
CLOQUET        CLOUDY    54  46  76 W6        29.88S
MCGREGOR       PTCLDY    52  46  82 W7        29.92S
$$
MNZ071>073-080-081-089-090-097-098-240800-
   Southwest Minnesota

CITY           SKY/WX    TMP DP  RH WIND       PRES   REMARKS
MONTEVIDEO     CLEAR     52  43  71 NW5       30.04S
GRANITE FALLS  CLEAR     51  46  80 W8        30.05F
CANBY          CLEAR     51  43  74 CALM      30.07F
MARSHALL       CLEAR     53  43  68 W12       30.06S
REDWOOD FALLS  CLEAR     52  43  71 W8        30.03S
OLIVIA         CLEAR     54  45  71 NW7       30.01S
PIPESTONE      CLEAR     52  43  71 NW6       30.09S
WINDOM         CLEAR     52  43  71 W9        30.06S
WORTHINGTON    CLEAR     52  42  69 NW10      30.09R
JACKSON        CLEAR     54  43  66 NW10      30.07R
TRACY          CLEAR     54  44  67 W6        30.07S
SLAYTON        CLEAR     48  38  66 W8        30.09R
$$
MNZ065>067-074>077-082>085-091>093-240800-
   South Central Minnesota

CITY           SKY/WX    TMP DP  RH WIND       PRES   REMARKS
MANKATO        PTCLDY    56  47  71 W9        30.01R
NEW ULM        CLEAR     54  45  71 W9        30.02S
ST JAMES       PTCLDY    55  45  67 W12       30.04S
FAIRMONT       PTCLDY    55  45  68 NW10      30.04R
GLENCOE        CLEAR     56  49  77 W9        29.98S
FARIBAULT      CLEAR     55  48  76 W8        29.98S
OWATONNA       CLEAR     54  48  82 W7        29.98S
WASECA         MOCLDY    52  50  93 W6        30.01S
ALBERT LEA     MOCLDY    57  50  77 W5        30.00F
$$
MNZ078>079-086>088-094>096-240800-
   Southeast Minnesota

CITY           SKY/WX    TMP DP  RH WIND       PRES   REMARKS
ROCHESTER      CLEAR     55  51  86 W9        29.97S
RED WING       CLEAR     61  46  59 NW5       29.93S
STANTON        PTCLDY    56  49  75 W6        29.95S
DODGE CENTER   PTCLDY    55  46  71 W8        29.98S
WINONA         MOCLDY    61  52  72 NW5       29.93S
AUSTIN         CLEAR     55  48  76 W8        29.98F
PRESTON        PTCLDY    56  49  78 NW10      29.97S
$$
ABBREVIATIONS USED IN REMARKS
   TC - TEMPERATURES IN CELSIUS
  WCI - WIND CHILL INDEX
   HX - HEAT INDEX
  VSB - VISIBILITY
$$




USA.gov is the U.S. government's official web portal to all federal, state and local government web resources and services.